Вернуться в каталог

STARLINK-32447

АктивенСвязьVLEO
NORAD 61261·PAYLOAD·🇺🇸 United States

Запущен Sep 25, 2024 с Vandenberg Space Force Base

Loading…

Ближайшие Пролёты (ближайшие 24 часа)

TLE

СвежийSource: CelesTrak SupGP

Эпоха: Sep 14, 2026, 20:46 UTC

1 61261C 24175U   26257.86576389  .00025036  00000+0  74006-3 0  2571
2 61261  53.1589  32.1854 0001229  82.2017 208.8964 15.34362007    15

Отслеживайте STARLINK-32447 в реальном времени с AllMySat

Download on the App Store